User: anonymous   Login
Location: Biharia
(46.4333°N, 22.8000°E)
Time: 00:27:04
(UTC+00:00)
Language:

Cosmos 2150 Rocket - Orbit

View from above orbital plane
View from above orbital plane
View from above satellite
View from above satellite

Ground track
Ground track

The orbit data is extracted from the following two-line orbital elements,

1 21419U 91041B   22020.60794625  .00000093  00000-0  42434-4 0  9990
2 21419  74.0399 109.2715 0041376 345.1085  14.8844 14.34037059600712
Epoch (UTC): 20 January 2022 14:35:26
Eccentricity: 0.0041376
inclination: 74.0399°
perigee height: 748 km
apogee height: 808 km
right ascension of ascending node: 109.2715°
argument of perigee: 345.1085°
revolutions per day: 14.34037059
mean anomaly at epoch: 14.8844°
orbit number at epoch: 60071

The dashed part of the orbit path shows where the satellite is in the earth's shadow,  

DLR